Вернуться в каталог

HAINAN-1 01

АктивенНаукаPO
NORAD 51825·PAYLOAD·🇨🇳 China
Это название спутника еще не подтверждено официальными источниками.

Запущен Feb 27, 2022 с Wenchang Space Launch Site

Loading…

Ближайшие Пролёты (ближайшие 24 часа)

TLE

СвежийSource: Space-Track

Эпоха: Sep 11, 2026, 23:38 UTC

1 51825U 22019B   26254.98526623  .05925279  24873-5  55233-3 0  9994
2 51825  97.3166 354.2449 0012094 269.7432  90.2481 16.38561643253563

Отслеживайте HAINAN-1 01 в реальном времени с AllMySat

Download on the App Store